Year,Month,Day,Hour,Minute,Value (Times are PST for temperature in C)
2017,06,26,07,44,17.80
2017,06,26,07,45,17.80
2017,06,26,07,46,17.90
2017,06,26,07,47,17.90
2017,06,26,07,48,18.00
2017,06,26,07,49,18.10
2017,06,26,07,50,18.20
2017,06,26,07,51,18.20
2017,06,26,07,52,18.30
2017,06,26,07,53,18.40
2017,06,26,07,54,18.50
2017,06,26,07,55,18.60
2017,06,26,07,56,18.70
2017,06,26,07,57,18.70
2017,06,26,07,58,18.70
2017,06,26,07,59,18.70
2017,06,26,08,00,18.70
2017,06,26,08,01,18.70
2017,06,26,08,02,18.60
2017,06,26,08,03,18.50
2017,06,26,08,04,18.50
2017,06,26,08,05,18.40
2017,06,26,08,06,18.40
2017,06,26,08,07,18.30
2017,06,26,08,08,18.30
2017,06,26,08,09,18.30
2017,06,26,08,10,18.30
2017,06,26,08,11,18.30
2017,06,26,08,12,18.30
2017,06,26,08,13,18.20
2017,06,26,08,14,18.10
2017,06,26,08,15,18.00
2017,06,26,08,16,18.00
2017,06,26,08,17,17.90
2017,06,26,08,18,17.90
2017,06,26,08,19,17.80
2017,06,26,08,20,17.60
2017,06,26,08,21,17.40
2017,06,26,08,22,17.30
2017,06,26,08,23,17.10
2017,06,26,08,24,16.90
2017,06,26,08,25,16.80
2017,06,26,08,26,16.80
2017,06,26,08,27,16.80
2017,06,26,08,28,16.90
2017,06,26,08,29,16.90
2017,06,26,08,30,16.90
2017,06,26,08,31,16.90
2017,06,26,08,32,16.90
2017,06,26,08,33,16.90
2017,06,26,08,34,16.90
2017,06,26,08,35,16.80
2017,06,26,08,36,16.80
2017,06,26,08,37,16.80
2017,06,26,08,38,16.70
2017,06,26,08,39,16.70
2017,06,26,08,40,16.70
2017,06,26,08,41,16.80
2017,06,26,08,42,16.70
2017,06,26,08,43,16.70
2017,06,26,08,44,16.60
2017,06,26,08,45,16.60
2017,06,26,08,46,16.60
2017,06,26,08,47,16.60
2017,06,26,08,48,16.60
2017,06,26,08,49,16.70
2017,06,26,08,50,16.70
2017,06,26,08,51,16.80
2017,06,26,08,52,16.90
2017,06,26,08,53,16.90
2017,06,26,08,54,16.90
2017,06,26,08,55,16.90
2017,06,26,08,56,16.90
2017,06,26,08,57,16.90
2017,06,26,08,58,16.90
2017,06,26,08,59,16.90
2017,06,26,09,00,16.90
2017,06,26,09,01,16.90
2017,06,26,09,02,16.90
2017,06,26,09,03,16.90
2017,06,26,09,04,17.00
2017,06,26,09,05,17.00
2017,06,26,09,06,17.10
2017,06,26,09,07,17.10
2017,06,26,09,08,17.20
2017,06,26,09,09,17.20
2017,06,26,09,10,17.20
2017,06,26,09,11,17.20
2017,06,26,09,12,17.30
2017,06,26,09,13,17.30
2017,06,26,09,14,17.30
2017,06,26,09,15,17.30
2017,06,26,09,16,17.30
2017,06,26,09,17,17.30
2017,06,26,09,18,17.30
2017,06,26,09,19,17.30
2017,06,26,09,20,17.30
2017,06,26,09,21,17.30
2017,06,26,09,22,17.40
2017,06,26,09,23,17.50
2017,06,26,09,24,17.50
2017,06,26,09,25,17.60
2017,06,26,09,26,17.70
2017,06,26,09,27,17.80
2017,06,26,09,28,17.90
2017,06,26,09,29,17.90
2017,06,26,09,30,17.90
2017,06,26,09,31,18.10
2017,06,26,09,32,18.20
2017,06,26,09,33,18.20
2017,06,26,09,34,18.30
2017,06,26,09,35,18.40
2017,06,26,09,36,18.60
2017,06,26,09,37,18.70
2017,06,26,09,38,18.70
2017,06,26,09,39,18.80
2017,06,26,09,40,18.80
2017,06,26,09,41,18.70
2017,06,26,09,42,18.80
2017,06,26,09,43,18.80
2017,06,26,09,44,18.80
2017,06,26,09,45,18.80
2017,06,26,09,46,18.80
2017,06,26,09,47,18.70
2017,06,26,09,48,18.60
2017,06,26,09,49,18.60
2017,06,26,09,50,18.60
2017,06,26,09,51,18.70
2017,06,26,09,52,18.70
2017,06,26,09,53,18.80
2017,06,26,09,54,18.80
2017,06,26,09,55,18.80
2017,06,26,09,56,18.80
2017,06,26,09,57,18.80
2017,06,26,09,58,18.70
2017,06,26,09,59,18.70
2017,06,26,10,00,18.60
2017,06,26,10,01,18.60
2017,06,26,10,02,18.50
2017,06,26,10,03,18.40
2017,06,26,10,04,18.40
2017,06,26,10,05,18.40
2017,06,26,10,06,18.40
2017,06,26,10,07,18.40
2017,06,26,10,08,18.40
2017,06,26,10,09,18.50
2017,06,26,10,10,18.60
2017,06,26,10,11,18.60
2017,06,26,10,12,18.60
2017,06,26,10,13,18.60
2017,06,26,10,14,18.60
2017,06,26,10,15,18.60
2017,06,26,10,16,18.70
2017,06,26,10,17,18.80
2017,06,26,10,18,18.80
2017,06,26,10,19,19.00
2017,06,26,10,20,19.00
2017,06,26,10,21,18.90
2017,06,26,10,22,18.80
2017,06,26,10,23,18.70
2017,06,26,10,24,18.80
2017,06,26,10,25,18.80
2017,06,26,10,26,18.80
2017,06,26,10,27,18.80
2017,06,26,10,28,18.80
2017,06,26,10,29,18.70
2017,06,26,10,30,18.70
2017,06,26,10,31,18.70
2017,06,26,10,32,18.80
2017,06,26,10,33,18.70
2017,06,26,10,34,18.70
2017,06,26,10,35,18.60
2017,06,26,10,36,18.60
2017,06,26,10,37,18.60
2017,06,26,10,38,18.70
2017,06,26,10,39,18.70
2017,06,26,10,40,18.60
2017,06,26,10,41,18.60
2017,06,26,10,42,18.60
2017,06,26,10,43,18.60
2017,06,26,10,44,18.70
2017,06,26,10,45,18.80
2017,06,26,10,46,18.70
2017,06,26,10,47,18.70
2017,06,26,10,48,18.80
2017,06,26,10,49,18.80
2017,06,26,10,50,18.80
2017,06,26,10,51,18.80
2017,06,26,10,52,18.60
2017,06,26,10,53,18.60
2017,06,26,10,54,18.70
2017,06,26,10,55,18.70
2017,06,26,10,56,18.80
2017,06,26,10,57,18.80
2017,06,26,10,58,18.80
2017,06,26,10,59,18.70
2017,06,26,11,00,18.70
2017,06,26,11,01,18.70
2017,06,26,11,02,18.60
2017,06,26,11,03,18.60
2017,06,26,11,04,18.60
2017,06,26,11,05,18.50
2017,06,26,11,06,18.50
2017,06,26,11,07,18.50
2017,06,26,11,08,18.60
2017,06,26,11,09,18.60
2017,06,26,11,10,18.60
2017,06,26,11,11,18.60
2017,06,26,11,12,18.60
2017,06,26,11,13,18.60
2017,06,26,11,14,18.60
2017,06,26,11,15,18.70
2017,06,26,11,16,18.90
2017,06,26,11,17,19.00
2017,06,26,11,18,19.10
2017,06,26,11,19,19.10
2017,06,26,11,20,19.10
2017,06,26,11,21,19.10
2017,06,26,11,22,19.20
2017,06,26,11,23,19.30
2017,06,26,11,24,19.30
2017,06,26,11,25,19.40
2017,06,26,11,26,19.40
2017,06,26,11,27,19.40
2017,06,26,11,28,19.40
2017,06,26,11,29,19.30
2017,06,26,11,30,19.20
2017,06,26,11,31,19.30
2017,06,26,11,32,19.30
2017,06,26,11,33,19.30
2017,06,26,11,34,19.40
2017,06,26,11,35,19.40
2017,06,26,11,36,19.30
2017,06,26,11,37,19.20
2017,06,26,11,38,19.20
2017,06,26,11,39,19.20
2017,06,26,11,40,19.10
2017,06,26,11,41,19.10
2017,06,26,11,42,19.10
2017,06,26,11,43,19.10
2017,06,26,11,44,19.00
2017,06,26,11,45,19.00
2017,06,26,11,46,19.10
2017,06,26,11,47,19.00
2017,06,26,11,48,18.90
2017,06,26,11,49,18.80
2017,06,26,11,50,18.70
2017,06,26,11,51,18.60
2017,06,26,11,52,18.50
2017,06,26,11,53,18.50
2017,06,26,11,54,18.40
2017,06,26,11,55,18.40
2017,06,26,11,56,18.40
2017,06,26,11,57,18.40
2017,06,26,11,58,18.40
2017,06,26,11,59,18.30
2017,06,26,12,00,18.20
2017,06,26,12,01,18.10
2017,06,26,12,02,18.00
2017,06,26,12,03,17.90
2017,06,26,12,04,18.00
2017,06,26,12,05,18.00
2017,06,26,12,06,18.00
2017,06,26,12,07,18.00
2017,06,26,12,08,17.80
2017,06,26,12,09,17.60
2017,06,26,12,10,17.40
2017,06,26,12,11,17.40
2017,06,26,12,12,17.40
2017,06,26,12,13,17.40
2017,06,26,12,14,17.40
2017,06,26,12,15,17.40
2017,06,26,12,16,17.40
2017,06,26,12,17,17.60
2017,06,26,12,18,17.60
2017,06,26,12,19,17.70
2017,06,26,12,20,17.70
2017,06,26,12,21,17.70
2017,06,26,12,22,17.70
2017,06,26,12,23,17.60
2017,06,26,12,24,17.60
2017,06,26,12,25,17.60
2017,06,26,12,26,17.60
2017,06,26,12,27,17.60
2017,06,26,12,28,17.60
2017,06,26,12,29,17.60
2017,06,26,12,30,17.50
2017,06,26,12,31,17.40
2017,06,26,12,32,17.30
2017,06,26,12,33,17.30
2017,06,26,12,34,17.30
2017,06,26,12,35,17.30
2017,06,26,12,36,17.30
2017,06,26,12,37,17.30
2017,06,26,12,38,17.40
2017,06,26,12,39,17.40
2017,06,26,12,40,17.40
2017,06,26,12,41,17.50
2017,06,26,12,42,17.60
2017,06,26,12,43,17.60
2017,06,26,12,44,17.60
2017,06,26,12,45,17.80
2017,06,26,12,46,17.90
2017,06,26,12,47,18.00
2017,06,26,12,48,18.10
2017,06,26,12,49,18.20
2017,06,26,12,50,18.20
2017,06,26,12,51,18.30
2017,06,26,12,52,18.30
2017,06,26,12,53,18.30
2017,06,26,12,54,18.30
2017,06,26,12,55,18.30
2017,06,26,12,56,18.30
2017,06,26,12,57,18.30
2017,06,26,12,58,18.30
2017,06,26,12,59,18.20
2017,06,26,13,00,18.10
2017,06,26,13,01,18.10
2017,06,26,13,02,18.00
2017,06,26,13,03,17.90
2017,06,26,13,04,17.90
2017,06,26,13,05,17.90
2017,06,26,13,06,17.90
2017,06,26,13,07,17.90
2017,06,26,13,08,17.80
2017,06,26,13,09,17.80
2017,06,26,13,10,17.80
2017,06,26,13,11,17.70
2017,06,26,13,12,17.70
2017,06,26,13,13,17.40
2017,06,26,13,14,17.30
2017,06,26,13,15,17.20
2017,06,26,13,16,17.10
2017,06,26,13,17,17.00
2017,06,26,13,18,17.00
2017,06,26,13,19,17.10
2017,06,26,13,20,17.20
2017,06,26,13,21,17.20
2017,06,26,13,22,17.30
2017,06,26,13,23,17.40
2017,06,26,13,24,17.40
2017,06,26,13,25,17.30
2017,06,26,13,26,17.30
2017,06,26,13,27,17.40
2017,06,26,13,28,17.40
2017,06,26,13,29,17.40
2017,06,26,13,30,17.50
2017,06,26,13,31,17.60
2017,06,26,13,32,17.70
2017,06,26,13,33,17.70
2017,06,26,13,34,17.60
2017,06,26,13,35,17.40
2017,06,26,13,36,17.40
2017,06,26,13,37,17.40
2017,06,26,13,38,17.40
2017,06,26,13,39,17.50
2017,06,26,13,40,17.50
2017,06,26,13,41,17.60
2017,06,26,13,42,17.60
2017,06,26,13,43,17.60
2017,06,26,13,44,17.70
2017,06,26,13,45,17.80
2017,06,26,13,46,17.90
2017,06,26,13,47,18.00
2017,06,26,13,48,18.10
2017,06,26,13,49,18.30
2017,06,26,13,50,18.50
2017,06,26,13,51,18.70
2017,06,26,13,52,18.90
2017,06,26,13,53,18.90
2017,06,26,13,54,18.90
2017,06,26,13,55,18.90
2017,06,26,13,56,19.00
2017,06,26,13,57,19.10
2017,06,26,13,58,19.20
2017,06,26,13,59,19.10
2017,06,26,14,00,19.00
2017,06,26,14,01,18.90
2017,06,26,14,02,18.90
2017,06,26,14,03,18.80
2017,06,26,14,04,18.90
2017,06,26,14,05,18.90
2017,06,26,14,06,19.10
2017,06,26,14,07,19.20
2017,06,26,14,08,19.20
2017,06,26,14,09,19.20
2017,06,26,14,10,19.30
2017,06,26,14,11,19.30
2017,06,26,14,12,19.40
2017,06,26,14,13,19.50
2017,06,26,14,14,19.60
2017,06,26,14,15,19.60
2017,06,26,14,16,19.70
2017,06,26,14,17,19.70
2017,06,26,14,18,19.60
2017,06,26,14,19,19.50
2017,06,26,14,20,19.50
2017,06,26,14,21,19.50
2017,06,26,14,22,19.60
2017,06,26,14,23,19.60
2017,06,26,14,24,19.70
2017,06,26,14,25,19.70
2017,06,26,14,26,19.80
2017,06,26,14,27,19.80
2017,06,26,14,28,19.80
2017,06,26,14,29,19.90
2017,06,26,14,30,20.00
2017,06,26,14,31,20.10
2017,06,26,14,32,20.30
2017,06,26,14,33,20.50
2017,06,26,14,34,20.60
2017,06,26,14,35,20.80
2017,06,26,14,36,20.90
2017,06,26,14,37,20.90
2017,06,26,14,38,21.00
2017,06,26,14,39,21.00
2017,06,26,14,40,21.20
2017,06,26,14,41,21.30
2017,06,26,14,42,21.40
2017,06,26,14,43,21.50
2017,06,26,14,44,21.50
2017,06,26,14,45,21.60
2017,06,26,14,46,21.70
2017,06,26,14,47,21.90
2017,06,26,14,48,22.00
2017,06,26,14,49,22.10
2017,06,26,14,50,22.10
2017,06,26,14,51,22.10
2017,06,26,14,52,22.20
2017,06,26,14,53,22.30
2017,06,26,14,54,22.40
2017,06,26,14,55,22.50
2017,06,26,14,56,22.60
2017,06,26,14,57,22.70
2017,06,26,14,58,22.80
2017,06,26,14,59,22.80
2017,06,26,15,00,22.90
2017,06,26,15,01,22.90
2017,06,26,15,02,23.00
2017,06,26,15,03,23.10
2017,06,26,15,04,23.20
2017,06,26,15,05,23.20
2017,06,26,15,06,23.30
2017,06,26,15,07,23.50
2017,06,26,15,08,23.70
2017,06,26,15,09,24.00
2017,06,26,15,10,24.30
2017,06,26,15,11,24.30
2017,06,26,15,12,24.30
2017,06,26,15,13,24.20
2017,06,26,15,14,24.10
2017,06,26,15,15,23.90
2017,06,26,15,16,23.70
2017,06,26,15,17,23.50
2017,06,26,15,18,23.40
2017,06,26,15,19,23.40
2017,06,26,15,20,23.30
2017,06,26,15,21,23.20
2017,06,26,15,22,23.00
2017,06,26,15,23,23.00
2017,06,26,15,24,23.10
2017,06,26,15,25,23.30
2017,06,26,15,26,23.30
2017,06,26,15,27,23.30
2017,06,26,15,28,23.20
2017,06,26,15,29,22.90
2017,06,26,15,30,22.60
2017,06,26,15,31,22.40
2017,06,26,15,32,22.20
2017,06,26,15,33,22.20
2017,06,26,15,34,22.20
2017,06,26,15,35,22.10
2017,06,26,15,36,21.90
2017,06,26,15,37,21.90
2017,06,26,15,38,21.90
2017,06,26,15,39,21.90
2017,06,26,15,40,21.90
2017,06,26,15,41,21.90
2017,06,26,15,42,21.90
2017,06,26,15,43,21.90
2017,06,26,15,44,21.90
2017,06,26,15,45,21.80
2017,06,26,15,46,21.90
2017,06,26,15,47,21.90
2017,06,26,15,48,21.90
2017,06,26,15,49,21.90
2017,06,26,15,50,21.90
2017,06,26,15,51,21.90
2017,06,26,15,52,22.10
2017,06,26,15,53,22.20
2017,06,26,15,54,22.30
2017,06,26,15,55,22.40
2017,06,26,15,56,22.30
2017,06,26,15,57,22.20
2017,06,26,15,58,22.00
2017,06,26,15,59,21.90
2017,06,26,16,00,21.90
2017,06,26,16,01,21.90
2017,06,26,16,02,21.90
2017,06,26,16,03,21.80
2017,06,26,16,04,21.80
2017,06,26,16,05,21.80
2017,06,26,16,06,21.90
2017,06,26,16,07,22.10
2017,06,26,16,08,22.30
2017,06,26,16,09,22.30
2017,06,26,16,10,22.20
2017,06,26,16,11,22.20
2017,06,26,16,12,22.10
2017,06,26,16,13,22.10
2017,06,26,16,14,22.10
2017,06,26,16,15,22.10
2017,06,26,16,16,22.10
2017,06,26,16,17,22.30
2017,06,26,16,18,22.50
2017,06,26,16,19,22.60
2017,06,26,16,20,22.70
2017,06,26,16,21,22.60
2017,06,26,16,22,22.40
2017,06,26,16,23,22.40
2017,06,26,16,24,22.50
2017,06,26,16,25,22.60
2017,06,26,16,26,22.60
2017,06,26,16,27,22.70
2017,06,26,16,28,22.70
2017,06,26,16,29,22.70
2017,06,26,16,30,22.60
2017,06,26,16,31,22.50
2017,06,26,16,32,22.50
2017,06,26,16,33,22.50
2017,06,26,16,34,22.50
2017,06,26,16,35,22.50
2017,06,26,16,36,22.60
2017,06,26,16,37,22.60
2017,06,26,16,38,22.60
2017,06,26,16,39,22.60
2017,06,26,16,40,22.60
2017,06,26,16,41,22.50
2017,06,26,16,42,22.40
2017,06,26,16,43,22.30
2017,06,26,16,44,22.40
2017,06,26,16,45,22.50
2017,06,26,16,46,22.40
2017,06,26,16,47,22.30
2017,06,26,16,48,22.30
2017,06,26,16,49,22.40
2017,06,26,16,50,22.60
2017,06,26,16,51,22.70
2017,06,26,16,52,22.90
2017,06,26,16,53,22.90
2017,06,26,16,54,22.90
2017,06,26,16,55,23.00
2017,06,26,16,56,22.90
2017,06,26,16,57,22.90
2017,06,26,16,58,22.80
2017,06,26,16,59,22.90
2017,06,26,17,00,22.90
2017,06,26,17,01,22.90
2017,06,26,17,02,22.80
2017,06,26,17,03,22.70
2017,06,26,17,04,22.60
2017,06,26,17,05,22.40
2017,06,26,17,06,22.30
2017,06,26,17,07,22.30
2017,06,26,17,08,22.20
2017,06,26,17,09,22.10
2017,06,26,17,10,22.10
2017,06,26,17,11,22.10
2017,06,26,17,12,22.00
2017,06,26,17,13,21.90
2017,06,26,17,14,21.80
2017,06,26,17,15,21.70
2017,06,26,17,16,21.70
2017,06,26,17,17,21.80
2017,06,26,17,18,21.80
2017,06,26,17,19,21.80
2017,06,26,17,20,21.80
2017,06,26,17,21,21.80
2017,06,26,17,22,21.80
2017,06,26,17,23,21.90
2017,06,26,17,24,21.90
2017,06,26,17,25,22.00
2017,06,26,17,26,22.00
2017,06,26,17,27,22.10
2017,06,26,17,28,22.20
2017,06,26,17,29,22.20
2017,06,26,17,30,22.30
2017,06,26,17,31,22.40
2017,06,26,17,32,22.40
2017,06,26,17,33,22.30
2017,06,26,17,34,22.30
2017,06,26,17,35,22.40
2017,06,26,17,36,22.50
2017,06,26,17,37,22.70
2017,06,26,17,38,22.80
2017,06,26,17,39,22.90
2017,06,26,17,40,22.90
2017,06,26,17,41,22.80
2017,06,26,17,42,22.80
2017,06,26,17,43,22.70
2017,06,26,17,44,22.70
2017,06,26,17,45,22.80
2017,06,26,17,46,22.80
2017,06,26,17,47,22.90
2017,06,26,17,48,22.70
2017,06,26,17,49,22.70
2017,06,26,17,50,22.50
2017,06,26,17,51,22.40
2017,06,26,17,52,22.40
2017,06,26,17,53,22.40
2017,06,26,17,54,22.30
2017,06,26,17,55,22.40
2017,06,26,17,56,22.60
2017,06,26,17,57,22.70
2017,06,26,17,58,22.80
2017,06,26,17,59,23.00
2017,06,26,18,00,23.00
2017,06,26,18,01,23.10
2017,06,26,18,02,23.20
2017,06,26,18,03,23.20
2017,06,26,18,04,23.20
2017,06,26,18,05,23.20
2017,06,26,18,06,23.30
2017,06,26,18,07,23.40
2017,06,26,18,08,23.50
2017,06,26,18,09,23.60
2017,06,26,18,10,23.70
2017,06,26,18,11,23.90
2017,06,26,18,12,24.00
2017,06,26,18,13,24.10
2017,06,26,18,14,24.10
2017,06,26,18,15,24.10
2017,06,26,18,16,24.10
2017,06,26,18,17,24.10
2017,06,26,18,18,24.10
2017,06,26,18,19,24.10
2017,06,26,18,20,24.10
2017,06,26,18,21,24.10
2017,06,26,18,22,24.30
2017,06,26,18,23,24.40
2017,06,26,18,24,24.40
2017,06,26,18,25,24.30
2017,06,26,18,26,24.10
2017,06,26,18,27,23.90
2017,06,26,18,28,23.80
2017,06,26,18,29,23.70
2017,06,26,18,30,23.70
2017,06,26,18,31,23.70
2017,06,26,18,32,23.70
2017,06,26,18,33,23.70
2017,06,26,18,34,23.70
2017,06,26,18,35,23.80
2017,06,26,18,36,23.80
2017,06,26,18,37,23.80
2017,06,26,18,38,23.80
2017,06,26,18,39,23.80
2017,06,26,18,40,23.80
2017,06,26,18,41,23.70
2017,06,26,18,42,23.70
2017,06,26,18,43,23.70
2017,06,26,18,44,23.60
2017,06,26,18,45,23.40
2017,06,26,18,46,23.30
2017,06,26,18,47,23.20
2017,06,26,18,48,23.20
2017,06,26,18,49,23.30
2017,06,26,18,50,23.30
2017,06,26,18,51,23.30
2017,06,26,18,52,23.30
2017,06,26,18,53,23.20
2017,06,26,18,54,23.10
2017,06,26,18,55,23.00
2017,06,26,18,56,22.90
2017,06,26,18,57,22.90
2017,06,26,18,58,22.90
2017,06,26,18,59,22.90
2017,06,26,19,00,22.90
2017,06,26,19,01,22.90
2017,06,26,19,02,22.90
2017,06,26,19,03,22.90
2017,06,26,19,04,22.90
2017,06,26,19,05,22.90
